Regional Weather Roundup
Issued by NWS

Home | Current Version | Previous Version | Text Only | Print | Product List | Glossary Off
Versions: 1 2 3 4 5 6 7 8 9 10 11 12 13 14 15 16 17 18 19 20 21 22 23 24 25 26 27 28 29 30 31 32 33 34 35 36 37 38 39 40 41 42 43 44 45 46 47 48 49 50

000
ASUS43 KLMK 060702
RWRKY
KENTUCKY REGIONAL WEATHER ROUNDUP
NATIONAL WEATHER SERVICE LOUISVILLE KY
300 AM EDT FRI MAY 06 2016

NOTE "FAIR" INDICATES FEW OR NO CLOUDS BELOW 12,000 FEET
WITH NO SIGNIFICANT WEATHER AND/OR OBSTRUCTIONS TO VISIBILITY.

KYZ001>023-026-027-061>063-070>075-060800-
WESTERN AND SOUTH CENTRAL KENTUCKY

CITY           SKY/WX    TMP DP  RH WIND       PRES   REMARKS
PADUCAH        CLEAR     47  43  86 W5        30.00F
HENDERSON      CLEAR     48  43  81 CALM      29.99S
OWENSBORO      CLEAR     49  47  93 CALM      29.98F
HOPKINSVILLE   CLEAR     49  45  85 W7        29.98F
BOWLING GREEN  MOCLDY    51  45  79 NW3       29.96F
GLASGOW        NOT AVBL
$$

KYZ024-025-028>034-038-045-046-053-060800-
NORTH CENTRAL KENTUCKY

CITY           SKY/WX    TMP DP  RH WIND       PRES   REMARKS
LOUISVILLE/SDF CLEAR     54  44  69 N10       29.94F
LOUISVILLE/LOU CLEAR     53  44  71 NW8       29.94F
FORT KNOX      CLEAR     48  43  85 NW5       29.93F
$$

KYZ035>037-039>044-047>052-055>060-089>105-060800-
NORTHEAST KENTUCKY

CITY           SKY/WX    TMP DP  RH WIND       PRES   REMARKS
LEXINGTON      CLOUDY    50  46  86 NW6       29.91S
COVINGTON      CLEAR     49  45  86 NW8       29.91F
FRANKFORT      CLEAR     50  45  83 NW5       29.91S
$$

KYZ054-064>069-076>088-106>120-060800-
SOUTHEAST KENTUCKY

CITY           SKY/WX    TMP DP  RH WIND       PRES   REMARKS
JACKSON        CLEAR     45  42  89 W5        29.86F FOG
LONDON         CLEAR     44  41  89 W3        29.89F
SOMERSET       NOT AVBL
MIDDLESBORO    PTCLDY    50  45  81 NW9G23    29.88F
MONTICELLO     CLOUDY    48  46  93 W6        29.94F
$$




USA.gov is the U.S. government's official web portal to all federal, state and local government web resources and services.